[[{"header":{"parameterUnit":"m.s-1","parameterCategory":1,"la1":30.2991,"la2":30.254,"lo1":-89.0895,"lo2":-89.0444,"dy":0.0017,"dx":0.0017,"nx":28,"ny":28,"refTime":"2025-12-01T09:00:00:Z","depth":0,"parameterNumber":2,"parameterNumberName":"U-component_of_WINDS"},"data":[0,0,0,0,0,0,0,0,0,0,0,0,0,0,0,0,0,0,0,0,0,0,0,0,0,0,0,0,0,0,0,0,0,0,0,0,0,0,0,0,0,0,0,0,0,0,0,0,0,0,0,0,0,0,0,0,0,0,-0.2551,-0.2551,0,-0.2624,-0.2625,-0.2626,-0.2643,-0.2642,-0.2642,-0.2641,-0.2718,-0.272,-0.2723,0,0,0,0,0,0,0,0,0,0,0,0,0,-0.2424,-0.2426,-0.255,-0.2551,-0.2552,-0.2624,-0.2625,-0.2626,-0.2643,-0.2642,-0.2642,-0.2641,-0.2717,-0.272,-0.2723,0,0,0,0,0,0,0,0,0,0,0,0,0,-0.2486,-0.2427,-0.255,-0.2569,-0.2572,-0.2624,-0.2625,-0.2627,-0.2643,-0.2642,-0.2642,-0.2641,-0.2716,-0.272,-0.2724,-0.2763,0,0,-0.2735,-0.2737,0,0,0,0,0,0,0,0,-0.2483,-0.2491,-0.2566,-0.2568,-0.2571,-0.2624,-0.2609,-0.2672,-0.2643,-0.2616,-0.2641,-0.264,-0.2687,-0.2693,-0.2709,-0.2766,-0.2769,-0.2735,-0.2738,-0.2739,-0.274,0,0,0,0,0,0,0,-0.2478,-0.2488,-0.258,-0.2567,-0.257,-0.2574,-0.2582,-0.2621,-0.2655,-0.2618,-0.262,-0.2628,-0.2689,-0.2705,-0.2711,-0.2771,-0.2735,-0.2739,-0.2741,-0.2743,-0.2862,-0.2863,0,0,0,0,0,0,-0.2471,-0.2484,-0.2577,-0.2582,-0.2524,-0.2577,-0.2586,-0.2607,-0.2655,-0.2661,-0.2629,-0.2629,-0.2699,-0.2706,-0.2714,-0.2762,-0.2739,-0.2743,-0.2745,-0.2861,-0.2862,-0.2863,0,0,0,0,0,0,-0.2468,-0.2479,-0.2574,-0.2533,-0.2546,-0.258,-0.2604,-0.2609,-0.2626,-0.2663,-0.2669,-0.264,-0.2699,-0.2708,-0.275,-0.2765,-0.2745,-0.2748,-0.286,-0.2861,-0.2863,-0.2858,0,0,0,0,0,0,-0.2464,-0.2478,-0.2493,-0.2534,-0.2548,-0.261,-0.2605,-0.2611,-0.2632,-0.2633,-0.2674,-0.2681,-0.2699,-0.2744,-0.2754,-0.277,-0.2751,-0.2859,-0.2861,-0.2862,-0.2857,-0.286,-0.2861,0,0,0,0,0,-0.246,-0.249,-0.2494,-0.2505,-0.2568,-0.261,-0.2619,-0.2639,-0.2634,-0.2649,-0.2672,-0.2679,-0.2761,-0.2748,-0.2759,-0.2776,-0.2858,-0.286,-0.2862,-0.2857,-0.2859,-0.2861,0,0,0,0,0,0,-0.2451,-0.2495,-0.2501,-0.2544,-0.2573,-0.2613,-0.2634,-0.2641,-0.2673,-0.2672,-0.2696,-0.2705,-0.2745,-0.2765,-0.2749,-0.2816,-0.2809,-0.2814,-0.2802,-0.2804,-0.2806,-0.2801,-0.2754,0,0,0,0,0,-0.2454,-0.2484,-0.2522,-0.2557,-0.2571,-0.2599,-0.2619,-0.2632,-0.2663,-0.2675,-0.2702,-0.2732,-0.2764,-0.2785,-0.2817,-0.286,-0.2869,-0.2877,-0.2879,-0.288,-0.2884,-0.2907,-0.2911,-0.287,-0.287,-0.287,0,0,-0.2461,-0.2489,-0.2507,-0.2556,-0.258,-0.2611,-0.261,-0.2643,-0.2666,-0.2681,-0.2721,-0.2741,-0.2776,-0.2818,-0.2838,-0.2836,-0.2897,-0.2883,-0.2884,-0.2887,-0.2909,-0.2913,-0.2917,-0.2871,-0.2871,-0.2871,0,0,-0.2489,-0.2513,-0.2545,-0.2568,-0.2604,-0.2623,-0.263,-0.2668,-0.2682,-0.2723,-0.2734,-0.2762,-0.2818,-0.2842,-0.2861,-0.2897,-0.2904,-0.2906,-0.2917,-0.2939,-0.2942,-0.2945,-0.2957,-0.2961,-0.291,-0.291,-0.291,0,-0.2493,-0.254,-0.256,-0.2592,-0.2613,-0.2626,-0.2658,-0.268,-0.2725,-0.2739,-0.2736,-0.2805,-0.2829,-0.2877,-0.2885,-0.2901,-0.291,-0.2902,-0.294,-0.2943,-0.2946,-0.2958,-0.2963,-0.291,-0.291,-0.291,-0.291,0,-0.2543,-0.2575,-0.2596,-0.2638,-0.2662,-0.2693,-0.2718,-0.2739,-0.2749,-0.2768,-0.2809,-0.2838,-0.2876,-0.2888,-0.2899,-0.2937,-0.2934,-0.2935,-0.2929,-0.295,-0.2961,-0.2966,-0.291,-0.291,-0.291,-0.291,0,0,-0.2569,-0.262,-0.2628,-0.2647,-0.2686,-0.2712,-0.2743,-0.278,-0.2797,-0.2827,-0.2854,-0.29,-0.29,-0.2922,-0.2936,-0.2955,-0.298,-0.2954,-0.2955,-0.2957,-0.3023,-0.3022,-0.3027,-0.2985,-0.2986,-0.2987,-0.302,0,-0.2602,-0.266,-0.2678,-0.2726,-0.2756,-0.2768,-0.2795,-0.2823,-0.284,-0.2868,-0.2888,-0.292,-0.2918,-0.2931,-0.2951,-0.2973,-0.2994,-0.2971,-0.3011,-0.3012,-0.3002,-0.3033,-0.3033,-0.3063,-0.3025,-0.3025,-0.3026,0,-0.2649,-0.2679,-0.273,-0.2764,-0.2777,-0.2802,-0.2836,-0.2862,-0.2893,-0.2904,-0.2928,-0.2939,-0.2973,-0.2964,-0.301,-0.2994,-0.3011,-0.3024,-0.3025,-0.303,-0.302,-0.3039,-0.3073,-0.3078,-0.3033,-0.3033,-0.3032,0,-0.2663,-0.2716,-0.2752,-0.2768,-0.2809,-0.2826,-0.2844,-0.2874,-0.2894,-0.2923,-0.2937,-0.297,-0.2988,-0.3013,-0.3033,-0.3025,-0.3077,-0.307,-0.3087,-0.3087,-0.3098,-0.3097,-0.3135,-0.3109,-0.3108,-0.3108,-0.3108,0,-0.2698,-0.2729,-0.2759,-0.2782,-0.2816,-0.2836,-0.2869,-0.2888,-0.2914,-0.294,-0.2952,-0.2976,-0.3001,-0.3028,-0.3044,-0.3079,-0.3087,-0.3097,-0.3101,-0.3097,-0.3095,-0.3108,-0.3107,-0.311,-0.3109,-0.3109,-0.3109,0,-0.272,-0.2741,-0.2782,-0.2817,-0.2827,-0.285,-0.2881,-0.2903,-0.292,-0.2953,-0.2962,-0.299,-0.3023,-0.3044,-0.3087,-0.3097,-0.3135,-0.3139,-0.3125,-0.3127,-0.3142,-0.314,-0.3191,-0.3198,-0.3166,-0.3166,-0.3166,0,-0.2741,-0.2765,-0.2802,-0.282,-0.2838,-0.2868,-0.2888,-0.2908,-0.2928,-0.2964,-0.2981,-0.3015,-0.3043,-0.3094,-0.3118,-0.315,-0.3154,-0.3169,-0.3159,-0.3153,-0.3154,-0.3152,-0.3155,-0.3171,-0.3172,-0.3172,-0.3172,0,-0.2777,-0.2786,-0.2814,-0.2846,-0.287,-0.2896,-0.2922,-0.2936,-0.2961,-0.2983,-0.3016,-0.3037,-0.3079,-0.3112,-0.3146,-0.3164,-0.3172,-0.3175,-0.318,-0.3176,-0.3167,-0.3172,-0.3129,-0.3174,-0.3174,-0.3173,-0.3173,-0.3173,-0.2799,-0.282,-0.2849,-0.288,-0.2902,-0.2925,-0.2948,-0.2967,-0.2995,-0.3031,-0.3041,-0.3075,-0.3104,-0.315,-0.3168,-0.3195,-0.3194,-0.3202,-0.3204,-0.3206,-0.3206,-0.3162,-0.3202,-0.3202,-0.3202,-0.3202,-0.3201,0,-0.2835,-0.2854,-0.2882,-0.2918,-0.2942,-0.2946,-0.2975,-0.2995,-0.3025,-0.305,-0.3077,-0.3114,-0.3146,-0.3171,-0.3203,-0.322,-0.3224,-0.3228,-0.3227,-0.3231,-0.3205,-0.3197,-0.3224,-0.3224,-0.3224,-0.3224,-0.3224,-0.3224,-0.2857,-0.2892,-0.2904,-0.295,-0.2969,-0.3002,-0.3018,-0.304,-0.306,-0.3101,-0.3127,-0.3143,-0.3169,-0.3203,-0.3231,-0.3238,-0.3249,-0.3252,-0.3259,-0.3235,-0.3233,-0.323,-0.3223,-0.3254,-0.3254,-0.3282,-0.3283,-0.3283]},{"header":{"parameterUnit":"m.s-1","parameterCategory":1,"la1":30.2991,"la2":30.254,"lo1":-89.0895,"lo2":-89.0444,"dy":0.0017,"dx":0.0017,"nx":28,"ny":28,"refTime":"2025-12-01T09:00:00:Z","depth":0,"parameterNumber":3,"parameterNumberName":"V-component_of_WINDS"},"data":[0,0,0,0,0,0,0,0,0,0,0,0,0,0,0,0,0,0,0,0,0,0,0,0,0,0,0,0,0,0,0,0,0,0,0,0,0,0,0,0,0,0,0,0,0,0,0,0,0,0,0,0,0,0,0,0,0,0,-6.3771,-6.3773,0,-6.3884,-6.3886,-6.3887,-6.3803,-6.38,-6.3796,-6.3792,-6.3903,-6.3909,-6.3915,0,0,0,0,0,0,0,0,0,0,0,0,0,-6.3476,-6.3482,-6.3771,-6.3773,-6.3774,-6.3884,-6.3886,-6.3887,-6.3804,-6.3799,-6.3795,-6.3791,-6.39,-6.3908,-6.3916,0,0,0,0,0,0,0,0,0,0,0,0,0,-6.3598,-6.3483,-6.3771,-6.3746,-6.3745,-6.3884,-6.3886,-6.3888,-6.3805,-6.3799,-6.3794,-6.3789,-6.3898,-6.3907,-6.3917,-6.4085,0,0,-6.3946,-6.395,0,0,0,0,0,0,0,0,-6.3591,-6.3609,-6.3748,-6.3748,-6.3747,-6.3824,-6.3822,-6.3954,-6.3806,-6.3782,-6.3792,-6.3786,-6.3881,-6.3891,-6.3924,-6.409,-6.4095,-6.3946,-6.3952,-6.3956,-6.3959,0,0,0,0,0,0,0,-6.3583,-6.3603,-6.3816,-6.375,-6.375,-6.3726,-6.3738,-6.3846,-6.386,-6.3784,-6.3778,-6.3793,-6.3879,-6.3915,-6.3926,-6.4096,-6.3946,-6.3955,-6.396,-6.3964,-6.4402,-6.4408,0,0,0,0,0,0,-6.3577,-6.3597,-6.3812,-6.3819,-6.3654,-6.3736,-6.3749,-6.3805,-6.3859,-6.3862,-6.3797,-6.3788,-6.3902,-6.3915,-6.393,-6.4128,-6.3956,-6.3965,-6.3971,-6.4396,-6.4403,-6.441,0,0,0,0,0,0,-6.3571,-6.3598,-6.3808,-6.3707,-6.3732,-6.3747,-6.3811,-6.381,-6.3846,-6.3869,-6.3871,-6.3832,-6.3898,-6.3916,-6.4046,-6.4131,-6.3969,-6.3978,-6.4389,-6.4398,-6.4407,-6.4528,0,0,0,0,0,0,-6.3563,-6.3596,-6.3662,-6.3709,-6.3737,-6.3926,-6.3816,-6.3816,-6.3863,-6.3853,-6.3902,-6.3905,-6.3895,-6.4033,-6.4056,-6.4141,-6.3985,-6.4382,-6.4393,-6.4404,-6.4517,-6.454,-6.4561,0,0,0,0,0,-6.3553,-6.3691,-6.3666,-6.3692,-6.3821,-6.3931,-6.3947,-6.3934,-6.3871,-6.3936,-6.395,-6.3904,-6.4118,-6.4047,-6.4072,-6.4162,-6.4376,-6.439,-6.4403,-6.4507,-6.4536,-6.456,0,0,0,0,0,0,-6.3652,-6.3697,-6.3669,-6.3827,-6.3876,-6.3916,-6.3998,-6.3965,-6.4031,-6.4018,-6.3997,-6.4009,-6.4145,-6.4166,-6.4086,-6.4325,-6.4237,-6.4256,-6.4307,-6.4335,-6.4356,-6.4348,-6.3993,0,0,0,0,0,-6.3693,-6.3781,-6.3814,-6.395,-6.3976,-6.3983,-6.403,-6.4016,-6.4065,-6.4085,-6.4108,-6.4156,-6.4233,-6.4285,-6.4358,-6.4519,-6.4527,-6.4593,-6.4615,-6.4632,-6.4649,-6.4733,-6.4762,-6.4454,-6.4454,-6.4453,0,0,-6.3777,-6.3812,-6.3869,-6.397,-6.4006,-6.4095,-6.4001,-6.4099,-6.4164,-6.4099,-6.4223,-6.4243,-6.4294,-6.444,-6.4505,-6.4461,-6.4736,-6.4649,-6.4664,-6.467,-6.475,-6.4779,-6.4805,-6.4463,-6.4461,-6.446,0,0,-6.3975,-6.4012,-6.4128,-6.4166,-6.4222,-6.4226,-6.4254,-6.4299,-6.431,-6.4435,-6.4387,-6.4462,-6.4598,-6.4635,-6.4672,-6.4883,-6.4842,-6.4907,-6.5021,-6.5103,-6.5127,-6.5149,-6.5222,-6.5249,-6.4923,-6.4924,-6.4924,0,-6.4072,-6.4207,-6.4192,-6.4294,-6.4338,-6.4285,-6.44,-6.4437,-6.4514,-6.4545,-6.4495,-6.4662,-6.4693,-6.4846,-6.4897,-6.4929,-6.4958,-6.4901,-6.5125,-6.5147,-6.5166,-6.5236,-6.5264,-6.4931,-6.493,-6.493,-6.4929,0,-6.4322,-6.4416,-6.4502,-6.4579,-6.4633,-6.4742,-6.474,-6.4797,-6.4777,-6.4785,-6.4911,-6.4946,-6.5024,-6.5059,-6.5041,-6.5209,-6.518,-6.5129,-6.5039,-6.5203,-6.5268,-6.5295,-6.4942,-6.4939,-6.4937,-6.4935,0,0,-6.4587,-6.4654,-6.4685,-6.4719,-6.4776,-6.4846,-6.495,-6.5028,-6.5076,-6.513,-6.5215,-6.533,-6.5282,-6.5324,-6.5308,-6.5381,-6.5543,-6.532,-6.532,-6.5359,-6.5728,-6.5766,-6.5798,-6.5516,-6.5521,-6.5525,-6.5723,0,-6.4788,-6.4972,-6.4961,-6.5133,-6.5217,-6.5166,-6.5256,-6.53,-6.531,-6.538,-6.539,-6.5471,-6.5402,-6.5427,-6.5496,-6.5509,-6.5617,-6.5494,-6.5593,-6.5597,-6.5581,-6.5832,-6.5873,-6.6058,-6.5749,-6.5753,-6.5756,0,-6.5047,-6.5111,-6.5292,-6.5334,-6.5369,-6.5451,-6.552,-6.559,-6.5636,-6.5638,-6.5684,-6.5656,-6.5758,-6.5667,-6.5806,-6.5723,-6.5762,-6.5774,-6.578,-6.5789,-6.5686,-6.5846,-6.6117,-6.6145,-6.5796,-6.5793,-6.579,0,-6.522,-6.5352,-6.5476,-6.5506,-6.556,-6.5618,-6.5642,-6.5684,-6.573,-6.579,-6.5819,-6.5889,-6.5928,-6.5981,-6.5972,-6.5906,-6.6113,-6.6021,-6.6115,-6.6115,-6.6161,-6.6158,-6.6442,-6.6188,-6.6187,-6.6187,-6.6186,0,-6.5445,-6.5558,-6.5555,-6.5632,-6.5755,-6.5739,-6.5861,-6.5878,-6.5915,-6.5992,-6.5951,-6.6024,-6.6007,-6.6079,-6.6072,-6.6187,-6.6204,-6.6207,-6.6203,-6.621,-6.621,-6.6235,-6.6222,-6.6194,-6.6192,-6.6191,-6.619,0,-6.566,-6.5663,-6.5796,-6.5835,-6.5847,-6.5936,-6.5968,-6.6039,-6.6045,-6.6143,-6.6165,-6.6173,-6.6255,-6.6251,-6.6343,-6.6338,-6.6479,-6.6461,-6.6464,-6.646,-6.6554,-6.6545,-6.6864,-6.6904,-6.6625,-6.6628,-6.663,0,-6.5803,-6.5889,-6.5937,-6.5987,-6.6015,-6.6095,-6.6143,-6.6129,-6.618,-6.6238,-6.6302,-6.638,-6.6442,-6.6574,-6.6587,-6.6656,-6.6639,-6.6746,-6.6649,-6.6653,-6.6639,-6.6634,-6.6641,-6.6765,-6.6768,-6.677,-6.6772,0,-6.6056,-6.6053,-6.6124,-6.6196,-6.6254,-6.631,-6.636,-6.6402,-6.6393,-6.6452,-6.6536,-6.6584,-6.6678,-6.6755,-6.6821,-6.6843,-6.6806,-6.6803,-6.6828,-6.6836,-6.6834,-6.6835,-6.6515,-6.6795,-6.6793,-6.6791,-6.679,-6.6789,-6.6239,-6.6311,-6.6357,-6.6436,-6.6473,-6.6521,-6.6589,-6.6603,-6.6674,-6.675,-6.6737,-6.6831,-6.6872,-6.6957,-6.6985,-6.7056,-6.7018,-6.7055,-6.7064,-6.7073,-6.7083,-6.6823,-6.7068,-6.7067,-6.7067,-6.7066,-6.7066,0,-6.6488,-6.6514,-6.6588,-6.6661,-6.6723,-6.6684,-6.6737,-6.6791,-6.6874,-6.6917,-6.6979,-6.7074,-6.7148,-6.7166,-6.7237,-6.729,-6.7274,-6.7309,-6.7304,-6.7309,-6.7114,-6.7085,-6.732,-6.732,-6.732,-6.732,-6.732,-6.732,-6.6626,-6.6746,-6.6748,-6.6885,-6.6909,-6.7002,-6.7035,-6.7078,-6.7112,-6.722,-6.7282,-6.7294,-6.7326,-6.7398,-6.7464,-6.7467,-6.7494,-6.7535,-6.7532,-6.7349,-6.7323,-6.7299,-6.7271,-6.7542,-6.7542,-6.772,-6.7722,-6.7723]}]]